Theta_e
346 346 345 344 343 342 342 342 342 342 342 341 340 340 340 339 339 339 339 339 339 340 339 337 337 336 335 334 334 333 332 332 331 330 329 329 329 329 330 330 330 330
346 346 345 345 344 342 342 342 342 342 342 340 340 340 339 339 339 339 338 339 340 339 338 337 336 335 335 334 333 332 331 330 330 329 328 328 328 328 328 329 328 328
346 347 346 346 345 343 342 343 342 341 341 340 340 340 340 339 339 339 338 339 339 338 337 337 336 335 335 333 332 330 329 329 328 327 326 327 327 327 327 327 327 327
346 346 346 346 346 344 343 343 342 342 341 341 340 340 340 340 339 338 338 339 339 338 337 336 335 335 333 332 330 329 328 327 327 326 325 325 325 324 325 325 325 325
346 346 346 346 346 344 343 343 342 342 342 341 341 341 341 340 339 338 338 338 338 337 336 336 335 334 332 330 328 328 328 327 326 324 324 324 323 322 323 322 322 322
346 346 346 346 345 344 344 343 342 342 342 342 341 341 341 340 339 339 338 338 338 336 336 335 334 332 330 329 327 327 327 326 325 323 322 322 321 320 320 320 320 320
345 345 346 346 345 344 344 343 342 341 341 342 342 341 341 340 339 339 338 338 337 336 335 334 333 331 329 328 327 326 326 325 323 322 321 321 320 319 318 318 318 318
345 345 346 346 345 345 344 343 342 341 341 342 342 341 341 340 339 338 338 337 337 335 334 333 332 330 328 327 326 326 325 323 322 321 320 320 319 317 317 317 317 316
345 345 346 346 345 345 344 343 342 341 341 341 341 341 341 340 339 338 337 337 336 335 334 333 331 329 327 326 325 325 323 322 321 320 319 319 318 316 316 316 316 315
344 345 345 345 345 345 344 343 342 341 341 341 341 341 340 340 339 337 337 336 335 334 333 332 330 328 327 325 324 324 322 321 320 320 319 318 317 315 315 315 315 315
344 344 345 345 345 344 343 342 342 342 341 340 340 340 340 339 338 337 336 335 334 333 332 331 329 327 326 324 323 322 321 321 320 319 318 317 316 315 314 314 314 314
344 344 344 345 345 344 343 342 342 341 340 339 340 340 339 338 337 336 335 335 334 333 332 330 328 327 325 324 323 321 320 320 320 319 318 316 315 315 314 314 314 314
343 343 343 344 344 344 343 342 341 341 340 339 339 340 339 337 336 335 334 334 333 332 331 330 328 326 324 323 322 321 320 320 319 318 316 315 314 314 313 313 313 313
342 343 343 343 344 343 343 342 341 340 339 338 339 339 338 337 336 334 333 333 332 331 330 329 327 325 324 322 321 320 320 320 319 317 316 314 314 313 313 313 312 312
342 343 343 343 343 342 342 341 341 340 339 338 339 339 338 337 335 334 333 332 331 330 328 327 325 325 325 324 321 319 320 320 319 317 315 314 313 312 312 312 311 311
342 342 343 342 342 342 342 341 340 339 338 338 338 338 337 336 335 333 332 332 330 328 327 325 325 326 328 326 322 319 320 320 318 316 314 313 313 312 312 311 311 310
341 342 342 342 342 342 341 340 340 339 338 338 338 337 337 335 334 333 332 331 329 327 326 325 326 327 330 328 323 320 320 319 318 316 314 313 312 312 312 311 310 310
342 342 342 342 341 342 341 340 339 338 338 338 337 337 336 335 333 333 331 330 328 327 326 326 326 328 330 328 322 320 319 319 317 315 313 312 312 312 311 310 310 310
342 342 341 341 341 341 340 339 338 337 337 337 337 337 335 334 333 332 331 329 328 327 326 325 326 328 330 327 322 319 319 318 317 315 313 312 311 311 310 310 310 309
342 342 341 341 340 340 339 338 337 337 337 337 337 336 335 334 333 331 330 329 328 327 326 325 325 327 329 326 321 319 319 318 316 314 312 311 311 310 310 310 310 309
341 341 341 340 339 339 338 337 337 336 337 337 337 336 335 334 332 330 329 329 328 327 325 324 325 327 328 326 321 319 319 317 315 313 312 311 311 310 311 310 309 309
341 341 340 340 339 338 338 337 336 336 336 337 337 335 334 334 332 329 328 328 327 326 325 324 324 327 329 326 321 318 317 316 314 313 312 311 311 311 311 310 309 309
340 340 341 340 338 337 337 336 336 336 337 336 336 336 334 332 331 329 328 327 326 325 324 323 323 326 328 325 321 318 315 313 313 313 312 311 311 311 310 310 310 308
340 340 340 339 338 337 336 336 336 336 336 335 335 336 334 332 330 329 328 326 325 324 324 323 324 325 326 325 321 317 314 313 313 312 311 311 311 311 310 310 309 308
340 340 340 338 337 337 336 336 336 336 335 334 334 334 333 331 330 329 328 326 325 324 324 324 324 325 325 324 322 317 313 313 313 312 311 311 311 311 310 309 309 308
341 340 339 338 337 337 336 335 335 335 334 334 333 332 331 330 329 328 327 326 324 324 324 324 324 325 324 324 322 317 313 313 313 311 311 311 311 310 309 309 310 309
Wind_Speed
30 28 28 28 28 28 27 27 28 26 26 28 28 24 23 24 24 24 24 22 20 20 19 18 18 18 16 15 15 13 12 12 12 13 13 14 15 14 14 14 15 15
32 28 27 28 29 29 27 27 28 26 27 29 27 23 23 24 24 25 25 23 20 21 20 19 19 18 17 16 15 14 13 12 12 11 12 13 13 13 14 15 15 16
34 31 29 28 29 29 28 28 29 27 27 29 26 23 23 24 25 26 26 24 22 21 20 19 19 18 17 16 15 14 13 12 12 11 11 12 12 12 13 13 14 15
35 34 32 29 28 28 28 29 30 28 27 28 26 24 24 25 26 26 26 25 23 22 20 19 19 19 18 17 15 14 13 12 11 11 11 11 11 11 11 11 12 12
36 36 34 30 27 27 28 30 31 30 28 27 26 25 25 26 26 25 26 25 23 22 21 20 20 20 18 17 16 14 13 12 12 12 11 11 11 11 11 11 11 11
36 37 34 31 30 28 28 30 30 30 29 28 27 27 27 27 26 26 26 25 24 22 22 21 21 20 18 17 16 15 14 13 12 12 12 11 11 11 11 11 11 12
35 36 35 32 31 29 30 30 30 30 31 30 30 30 29 27 25 25 25 25 24 23 22 22 21 20 19 18 17 15 14 13 12 13 12 11 11 12 12 12 12 12
35 35 34 32 32 32 33 30 28 31 32 31 32 31 29 27 25 24 24 24 24 23 22 22 21 21 20 20 18 16 15 14 13 13 13 12 12 12 12 12 12 11
33 32 32 33 33 34 35 30 28 32 33 32 33 32 28 26 25 24 24 24 23 23 23 22 21 21 22 21 19 17 17 16 14 13 13 13 12 13 13 13 12 12
33 32 32 34 33 34 34 30 28 32 34 33 33 30 27 26 24 24 25 25 24 23 23 22 22 21 23 22 20 19 18 16 14 13 13 14 13 14 14 14 14 13
35 35 34 34 35 35 33 31 30 30 32 35 33 29 27 26 25 24 25 25 25 24 23 23 23 23 23 22 20 20 18 15 15 14 14 14 14 15 15 15 15 14
35 35 36 35 35 34 33 33 33 31 33 35 33 29 27 26 26 25 25 25 25 25 24 23 23 23 24 23 23 22 19 16 15 15 14 15 15 15 16 15 15 14
35 36 37 36 35 34 33 35 35 34 35 36 32 29 27 27 27 26 25 26 25 24 24 24 23 23 23 24 24 22 19 17 16 16 15 15 15 15 15 15 15 14
36 37 37 35 35 35 34 35 35 34 35 35 32 30 28 28 28 27 26 26 24 25 25 23 24 24 24 26 25 22 20 18 17 17 16 16 15 15 15 15 15 14
33 35 35 34 35 35 34 35 36 34 34 34 32 30 28 27 28 27 27 26 24 25 25 24 26 28 29 29 26 21 20 19 17 17 17 16 16 15 15 15 15 14
32 33 34 34 34 33 34 36 37 36 36 34 32 30 27 26 27 27 27 28 26 25 25 27 31 33 32 32 29 24 21 18 17 17 17 16 16 16 16 15 15 14
31 31 34 35 33 32 34 36 37 37 37 34 31 31 27 25 27 27 27 28 27 26 28 32 35 35 32 32 32 28 23 19 17 17 17 17 17 17 16 16 16 14
30 31 34 35 32 31 32 35 37 38 37 34 32 32 29 26 27 26 26 28 28 27 31 35 36 36 34 33 33 31 25 20 18 18 18 18 18 17 17 16 17 15
31 32 34 34 30 28 32 37 39 39 37 34 32 32 29 26 26 26 26 29 30 30 32 35 36 36 35 34 34 33 28 22 19 19 20 19 19 19 18 18 18 17
33 33 32 32 29 28 34 40 40 39 37 34 31 30 29 27 26 26 26 29 32 32 32 33 35 37 36 35 35 34 30 24 20 20 21 20 20 20 19 19 19 18
33 33 32 32 32 32 37 41 39 39 38 34 32 30 28 27 26 26 29 32 33 34 32 31 34 37 36 36 36 34 31 26 20 20 21 20 21 21 20 20 20 19
34 34 33 34 35 38 42 42 39 38 37 35 34 30 26 24 24 26 30 34 35 36 34 31 33 38 38 37 37 35 33 27 20 20 21 20 20 21 20 20 20 20
35 34 32 34 39 43 43 39 36 36 36 34 32 29 26 25 24 23 27 30 32 36 36 33 34 38 39 38 38 37 35 27 20 19 20 19 19 20 19 19 20 21
36 34 33 37 42 41 36 33 33 34 35 35 33 30 28 26 24 22 23 25 28 33 35 36 36 38 40 39 38 39 36 28 21 20 20 18 18 18 18 19 20 22
34 33 35 38 39 35 31 31 33 33 35 37 36 31 26 24 24 24 24 23 26 30 34 36 37 39 41 40 40 41 38 28 21 20 20 19 19 19 18 18 19 23
31 33 36 36 33 30 28 28 29 31 35 37 33 27 24 24 25 26 25 23 22 27 32 35 37 41 42 42 41 42 39 29 22 21 21 21 20 19 19 19 18 21
Wind_Direction
205 199 194 194 197 202 203 202 204 203 199 202 205 205 208 209 208 207 208 210 209 206 204 204 204 202 199 200 204 208 216 221 222 224 222 220 221 221 222 223 224 228
208 203 195 193 194 199 201 200 203 203 199 203 206 207 210 210 207 207 207 207 206 205 205 203 202 200 198 200 203 206 212 215 212 211 211 212 215 218 220 222 223 226
209 206 200 195 191 193 195 196 201 203 200 204 208 207 208 208 206 206 207 204 202 203 203 201 200 200 200 201 201 201 204 206 203 202 204 206 210 215 218 219 221 223
208 207 205 200 192 187 190 194 199 201 200 203 206 205 205 206 204 204 204 203 201 201 201 199 199 199 199 199 197 196 199 201 198 197 200 205 209 213 214 213 215 216
209 209 208 205 197 188 187 194 198 198 199 203 203 201 203 205 203 201 201 199 200 200 198 197 198 198 196 194 193 192 193 196 195 195 200 205 207 208 209 209 208 207
210 210 210 208 202 193 190 195 198 197 199 203 202 199 202 205 201 198 196 194 194 196 195 195 196 196 194 192 192 191 192 196 196 197 202 206 205 203 202 203 202 201
211 210 210 208 204 199 195 195 195 197 199 201 202 200 200 202 197 193 193 191 191 193 192 192 193 194 193 192 192 192 192 197 196 197 203 204 201 199 197 197 196 197
212 209 208 207 202 200 200 195 192 197 200 200 202 202 199 198 195 191 191 191 191 192 191 191 191 192 194 193 192 192 191 194 195 197 201 200 197 194 192 191 190 192
210 207 207 206 202 202 204 196 191 198 201 199 202 203 198 197 194 191 191 189 190 191 190 190 190 191 195 196 193 191 192 194 194 196 199 197 195 193 189 186 186 188
208 206 207 207 204 206 206 198 193 198 200 200 203 202 197 194 192 191 191 189 190 191 188 189 188 190 196 197 194 194 194 193 193 195 198 197 195 192 188 186 186 187
208 207 207 205 205 208 207 201 197 197 197 199 202 201 194 189 188 190 191 189 190 190 188 188 188 191 195 193 194 197 195 192 193 194 196 196 194 191 188 186 187 186
207 206 206 205 207 208 205 201 199 196 196 199 202 201 192 185 187 190 190 191 191 190 189 188 189 193 194 192 197 199 194 190 191 192 193 194 191 189 188 187 187 186
208 207 207 205 206 207 204 201 200 198 198 199 201 200 191 184 187 189 190 192 191 189 190 190 190 190 191 194 197 196 191 188 189 189 190 191 189 188 188 187 186 186
209 209 207 204 204 205 204 201 199 197 198 198 200 200 192 185 186 188 190 192 190 189 190 189 188 187 190 196 196 191 189 188 187 187 187 187 188 187 187 185 185 185
208 208 205 202 201 203 203 201 199 197 197 197 199 200 194 186 185 187 189 189 187 189 189 188 191 194 197 199 195 187 188 188 186 187 185 184 185 185 185 184 184 184
206 206 204 201 199 200 200 199 198 197 197 197 198 200 194 185 183 186 188 188 187 185 186 192 199 202 204 205 199 191 188 186 185 185 184 183 183 184 184 183 184 183
204 204 204 201 198 199 199 197 195 195 196 196 196 199 195 185 182 184 185 187 185 184 190 199 204 205 207 208 204 197 188 183 183 183 183 184 184 184 183 182 183 181
203 202 202 199 197 197 197 195 194 194 195 195 195 197 196 187 182 183 184 186 186 187 196 203 206 207 208 208 205 200 192 184 182 181 182 184 185 186 184 182 182 180
201 201 199 196 194 195 195 194 194 194 193 193 193 195 194 188 183 182 184 188 191 194 200 204 206 207 208 206 204 202 196 189 183 181 182 183 185 186 185 183 181 178
200 200 196 192 191 192 193 194 194 193 192 192 191 192 192 190 185 182 185 191 195 198 200 202 205 208 207 206 204 202 198 193 185 183 184 184 185 186 185 183 181 179
200 199 193 191 193 193 193 194 193 191 192 192 191 190 192 192 187 184 190 196 198 199 200 200 204 208 207 205 204 202 198 193 186 184 186 185 185 185 184 183 182 181
198 197 192 191 192 192 191 192 191 192 193 192 192 191 191 192 191 189 194 200 200 201 200 199 204 209 208 205 204 201 197 192 185 184 186 185 184 184 182 182 182 182
197 196 191 190 191 190 189 190 190 191 191 189 190 191 190 191 194 191 192 195 198 200 201 199 203 210 209 204 202 200 195 189 183 184 186 185 185 185 182 182 183 184
198 195 189 187 189 188 187 188 189 190 191 191 192 193 191 191 193 194 191 190 192 197 200 199 204 210 208 203 202 200 194 187 183 185 185 184 185 185 185 185 185 186
198 194 188 187 189 188 185 187 189 188 191 194 193 192 189 188 192 197 195 190 191 197 200 200 204 209 207 203 201 199 194 188 185 184 183 184 185 184 185 187 185 187
194 191 189 188 188 186 182 183 185 185 188 190 191 190 188 188 192 195 193 189 191 199 201 200 205 209 206 202 201 199 194 190 186 186 185 183 183 182 183 185 184 187